| time (UTC) | temp F | wind direction | speed MPH | gust MPH | rain 1hr in | rain 24hr in | rain mn in | humidity % | barometer mb |
| 20260510033317 | 76 | 193 | 5.0 | 12.0 | 0.00 | 0.00 | 0.00 | 50 | 1008.2 |
| 20260510031828 | 76 | 200 | 5.0 | 12.0 | 0.00 | 0.00 | 0.00 | 47 | 1008.2 |
| 20260510030323 | 77 | 188 | 5.0 | 10.0 | 0.00 | 0.00 | 0.00 | 45 | 1008.2 |
| 20260510024816 | 78 | 202 | 3.0 | 6.0 | 0.00 | 0.00 | 0.00 | 43 | 1008.2 |
| 20260510023330 | 80 | 188 | 3.0 | 11.0 | 0.00 | 0.00 | 0.00 | 40 | 1008.0 |
| 20260510021821 | 80 | 184 | 3.0 | 8.0 | 0.00 | 0.00 | 0.00 | 39 | 1007.8 |
| 20260510020315 | 81 | 192 | 3.0 | 8.0 | 0.00 | 0.00 | 0.00 | 37 | 1007.7 |
| 20260510014849 | 82 | 194 | 3.0 | 6.0 | 0.00 | 0.00 | 0.00 | 35 | 1007.4 |
| 20260510013321 | 83 | 190 | 3.0 | 8.0 | 0.00 | 0.00 | 0.00 | 33 | 1007.3 |
| 20260510011834 | 85 | 188 | 2.0 | 5.0 | 0.00 | 0.00 | 0.00 | 31 | 1007.3 |
| 20260510010324 | 86 | 184 | 2.0 | 6.0 | 0.00 | 0.00 | 0.00 | 29 | 1007.3 |
| 20260510004819 | 87 | 203 | 3.0 | 7.0 | 0.00 | 0.00 | 0.00 | 27 | 1007.3 |
| 20260510003332 | 88 | 197 | 3.0 | 8.0 | 0.00 | 0.00 | 0.00 | 27 | 1007.3 |
| 20260510001846 | 89 | 191 | 4.0 | 9.0 | 0.00 | 0.00 | 0.00 | 25 | 1007.3 |
| 20260510000314 | 90 | 176 | 3.0 | 8.0 | 0.00 | 0.00 | 0.00 | 24 | 1007.3 |
| 20260509234827 | 90 | 192 | 5.0 | 8.0 | 0.00 | 0.00 | 0.00 | 25 | 1007.4 |
| 20260509233342 | 90 | 192 | 2.0 | 7.0 | 0.00 | 0.00 | 0.00 | 25 | 1007.4 |
| 20260509231831 | 91 | 212 | 4.0 | 13.0 | 0.00 | 0.00 | 0.00 | 24 | 1007.5 |
| 20260509230341 | 91 | 195 | 4.0 | 10.0 | 0.00 | 0.00 | 0.00 | 24 | 1007.5 |
| 20260509224827 | 91 | 200 | 4.0 | 9.0 | 0.00 | 0.00 | 0.00 | 24 | 1007.6 |
| 20260509223319 | 92 | 214 | 5.0 | 9.0 | 0.00 | 0.00 | 0.00 | 24 | 1007.6 |
| 20260509221815 | 92 | 190 | 3.0 | 10.0 | 0.00 | 0.00 | 0.00 | 24 | 1007.6 |
| 20260509220328 | 92 | 193 | 5.0 | 12.0 | 0.00 | 0.00 | 0.00 | 24 | 1007.6 |
| 20260509214838 | 91 | 184 | 4.0 | 14.0 | 0.00 | 0.00 | 0.00 | 28 | 1007.6 |
| 20260509213331 | 92 | 167 | 4.0 | 9.0 | 0.00 | 0.00 | 0.00 | 28 | 1007.8 |
| 20260509211822 | 92 | 196 | 5.0 | 13.0 | 0.00 | 0.00 | 0.00 | 26 | 1008.0 |
| 20260509210316 | 91 | 190 | 4.0 | 9.0 | 0.00 | 0.00 | 0.00 | 28 | 1008.2 |
| 20260509204830 | 92 | 207 | 5.0 | 12.0 | 0.00 | 0.00 | 0.00 | 28 | 1008.4 |
| 20260509203324 | 91 | 221 | 4.0 | 7.0 | 0.00 | 0.00 | 0.00 | 29 | 1008.7 |
| 20260509201814 | 91 | 222 | 3.0 | 12.0 | 0.00 | 0.00 | 0.00 | 30 | 1008.8 |
| 20260509200348 | 91 | 188 | 2.0 | 7.0 | 0.00 | 0.00 | 0.00 | 28 | 1009.0 |
| 20260509194824 | 90 | 208 | 5.0 | 11.0 | 0.00 | 0.00 | 0.00 | 29 | 1009.2 |
| 20260509193317 | 90 | 219 | 4.0 | 10.0 | 0.00 | 0.00 | 0.00 | 32 | 1009.5 |
| 20260509191816 | 90 | 181 | 4.0 | 8.0 | 0.00 | 0.00 | 0.00 | 35 | 1009.6 |
| 20260509190328 | 90 | 194 | 2.0 | 10.0 | 0.00 | 0.00 | 0.00 | 37 | 1009.7 |
| 20260509184824 | 89 | 188 | 5.0 | 7.0 | 0.00 | 0.00 | 0.00 | 36 | 1009.8 |
| 20260509183353 | 88 | 191 | 2.0 | 10.0 | 0.00 | 0.00 | 0.00 | 38 | 1010.0 |
| 20260509181827 | 87 | 234 | 6.0 | 8.0 | 0.00 | 0.00 | 0.00 | 38 | 1010.2 |
| 20260509180318 | 87 | 182 | 6.0 | 11.0 | 0.00 | 0.00 | 0.00 | 39 | 1010.4 |
| 20260509174832 | 87 | 226 | 5.0 | 11.0 | 0.00 | 0.00 | 0.00 | 40 | 1010.6 |
| 20260509173324 | 86 | 177 | 4.0 | 10.0 | 0.00 | 0.00 | 0.00 | 42 | 1010.7 |
| 20260509171819 | 85 | 207 | 3.0 | 8.0 | 0.00 | 0.00 | 0.00 | 44 | 1011.0 |
| 20260509170330 | 84 | 221 | 6.0 | 8.0 | 0.00 | 0.00 | 0.00 | 45 | 1011.1 |
| 20260509164825 | 83 | 231 | 5.0 | 8.0 | 0.00 | 0.00 | 0.00 | 47 | 1011.1 |
| 20260509163318 | 82 | 224 | 6.0 | 9.0 | 0.00 | 0.00 | 0.00 | 50 | 1011.2 |
| 20260509161832 | 81 | 232 | 5.0 | 15.0 | 0.00 | 0.00 | 0.00 | 52 | 1011.2 |
| 20260509160326 | 80 | 216 | 6.0 | 10.0 | 0.00 | 0.00 | 0.00 | 56 | 1011.1 |
| 20260509154819 | 79 | 222 | 5.0 | 10.0 | 0.00 | 0.00 | 0.00 | 57 | 1011.1 |
| 20260509153328 | 78 | 221 | 5.0 | 10.0 | 0.00 | 0.00 | 0.00 | 61 | 1011.2 |
| 20260509151841 | 77 | 221 | 5.0 | 8.0 | 0.00 | 0.00 | 0.00 | 62 | 1011.2 |
| 20260509150324 | 76 | 232 | 4.0 | 13.0 | 0.00 | 0.00 | 0.00 | 65 | 1011.2 |
| 20260509144817 | 75 | 200 | 4.0 | 10.0 | 0.00 | 0.00 | 0.00 | 67 | 1011.3 |
| 20260509143328 | 73 | 212 | 3.0 | 9.0 | 0.00 | 0.00 | 0.00 | 73 | 1011.5 |
| 20260509141821 | 71 | 219 | 3.0 | 10.0 | 0.00 | 0.00 | 0.00 | 77 | 1011.5 |
| 20260509140331 | 70 | 215 | 4.0 | 9.0 | 0.00 | 0.00 | 0.00 | 79 | 1011.6 |
| 20260509134822 | 68 | 229 | 4.0 | 8.0 | 0.00 | 0.00 | 0.00 | 83 | 1011.6 |
| 20260509133318 | 67 | 226 | 6.0 | 8.0 | 0.00 | 0.00 | 0.00 | 85 | 1011.3 |
| 20260509131832 | 66 | 225 | 5.0 | 10.0 | 0.00 | 0.00 | 0.00 | 86 | 1011.4 |
| 20260509130321 | 65 | 216 | 5.0 | 9.0 | 0.00 | 0.00 | 0.00 | 86 | 1011.3 |
| 20260509124818 | 65 | 206 | 6.0 | 12.0 | 0.00 | 0.00 | 0.00 | 86 | 1011.1 |
| 20260509123329 | 65 | 212 | 6.0 | 9.0 | 0.00 | 0.00 | 0.00 | 86 | 1011.2 |
| 20260509121845 | 64 | 217 | 6.0 | 11.0 | 0.00 | 0.00 | 0.00 | 86 | 1011.0 |
| 20260509120316 | 62 | 196 | 5.0 | 10.0 | 0.00 | 0.00 | 0.00 | 85 | 1010.8 |
| 20260509114828 | 62 | 187 | 7.0 | 10.0 | 0.00 | 0.00 | 0.00 | 85 | 1010.8 |
| 20260509113324 | 62 | 196 | 5.0 | 9.0 | 0.00 | 0.00 | 0.00 | 85 | 1010.4 |
| 20260509111818 | 62 | 208 | 5.0 | 10.0 | 0.00 | 0.00 | 0.00 | 84 | 1010.2 |
| 20260509110351 | 63 | 199 | 4.0 | 13.0 | 0.00 | 0.00 | 0.00 | 84 | 1010.0 |
| 20260509104825 | 63 | 199 | 5.0 | 9.0 | 0.00 | 0.00 | 0.00 | 83 | 1010.0 |
| 20260509103319 | 63 | 184 | 4.0 | 9.0 | 0.00 | 0.00 | 0.00 | 82 | 1010.2 |
| 20260509101830 | 63 | 196 | 5.0 | 11.0 | 0.00 | 0.00 | 0.00 | 81 | 1010.2 |
| 20260509100320 | 64 | 187 | 4.0 | 8.0 | 0.00 | 0.00 | 0.00 | 79 | 1010.4 |
| 20260509094832 | 64 | 194 | 5.0 | 9.0 | 0.00 | 0.00 | 0.00 | 78 | 1010.4 |
| 20260509093321 | 65 | 191 | 3.0 | 7.0 | 0.00 | 0.00 | 0.00 | 77 | 1010.6 |
| 20260509091817 | 66 | 186 | 4.0 | 10.0 | 0.00 | 0.00 | 0.00 | 76 | 1010.6 |
| 20260509090314 | 66 | 207 | 4.0 | 8.0 | 0.00 | 0.00 | 0.00 | 74 | 1010.6 |
| 20260509084829 | 67 | 187 | 4.0 | 7.0 | 0.00 | 0.00 | 0.00 | 72 | 1010.6 |
| 20260509083325 | 67 | 195 | 3.0 | 11.0 | 0.00 | 0.00 | 0.00 | 75 | 1010.8 |
| 20260509081839 | 67 | 136 | 2.0 | 8.0 | 0.00 | 0.00 | 0.00 | 79 | 1011.3 |
| 20260509080316 | 67 | 80 | 3.0 | 9.0 | 0.00 | 0.00 | 0.00 | 82 | 1011.5 |
| 20260509074827 | 67 | 121 | 6.0 | 15.0 | 0.00 | 0.00 | 0.00 | 84 | 1011.7 |
| 20260509073324 | 68 | 92 | 6.0 | 10.0 | 0.00 | 0.00 | 0.00 | 85 | 1011.6 |
| 20260509071817 | 68 | 113 | 8.0 | 14.0 | 0.00 | 0.00 | 0.00 | 85 | 1011.9 |
| 20260509070316 | 68 | 78 | 8.0 | 10.0 | 0.00 | 0.00 | 0.00 | 85 | 1012.0 |
| 20260509064826 | 68 | 44 | 5.0 | 8.0 | 0.00 | 0.00 | 0.00 | 84 | 1011.2 |
| 20260509063319 | 68 | 193 | 3.0 | 4.0 | 0.00 | 0.00 | 0.00 | 84 | 1010.4 |
| 20260509061829 | 68 | 271 | 0.0 | 2.0 | 0.00 | 0.00 | 0.00 | 84 | 1010.4 |
| 20260509060326 | 69 | 278 | 1.0 | 7.0 | 0.00 | 0.00 | 0.00 | 84 | 1010.5 |
| 20260509054822 | 68 | 215 | 2.0 | 9.0 | 0.00 | 0.00 | 0.00 | 84 | 1010.0 |
| 20260509053319 | 68 | 192 | 5.0 | 11.0 | 0.00 | 0.00 | 0.00 | 83 | 1009.0 |
| 20260509051847 | 69 | 199 | 5.0 | 10.0 | 0.00 | 0.00 | 0.00 | 83 | 1008.8 |
| 20260509050320 | 69 | 208 | 5.0 | 14.0 | 0.00 | 0.00 | 0.00 | 82 | 1009.1 |
| 20260509044828 | 69 | 209 | 7.0 | 16.0 | 0.00 | 0.00 | 0.00 | 81 | 1009.1 |
| 20260509043316 | 70 | 205 | 5.0 | 12.0 | 0.00 | 0.00 | 0.00 | 80 | 1009.2 |
| 20260509041832 | 70 | 204 | 6.0 | 11.0 | 0.00 | 0.00 | 0.00 | 80 | 1009.2 |
| 20260509040324 | 70 | 192 | 4.0 | 14.0 | 0.00 | 0.00 | 0.00 | 79 | 1009.0 |
| 20260509034841 | 71 | 202 | 5.0 | 13.0 | 0.00 | 0.00 | 0.00 | 78 | 1008.7 |